Left ArrowRight Arrow

Hourly Observations for June 17, 2024

Temp ( °F °C ) Dew Point ( °F °C ) Humidity (%) Winds ( mph kmh ) Pressure ( in mb ) Visibility ( mi km ) Precip ( " mm )
12:56 am 00:56 Clear 81 27.2 69 20.6 67 67 SSE 29 46 29.55 1001 10 16 0.00 0.00
1:56 am 01:56 Clear 80 26.7 69 20.6 69 69 S 23 37 29.59 1002 10 16 0.00 0.00
2:56 am 02:56 Clear 79 26.1 68 20 69 69 S 21 33 29.57 1002 10 16 0.00 0.00
3:56 am 03:56 Clear 78 25.6 68 20 71 71 SSW 12 19 29.63 1003 10 16 0.00 0.00
4:56 am 04:56 Cloudy 69 20.6 56 13.3 63 63 NNE 17 28 29.68 1005 10 16 0.00 0.00
5:56 am 05:56 Cloudy 67 19.4 57 13.9 71 71 NE 13 20 29.67 1005 10 16 0.00 0.00
6:56 am 06:56 Cloudy 67 19.4 59 15 76 76 ENE 16 26 29.67 1005 10 16 0.01 0.13
7:56 am 07:56 Cloudy 68 20 62 16.7 81 81 ENE 23 37 29.68 1005 10 16 0.00 0.00
8:56 am 08:56 Cloudy 69 20.6 63 17.2 81 81 E 20 31 29.68 1005 10 16 0.01 0.13
9:56 am 09:56 Cloudy 69 20.6 64 17.8 84 84 E 25 41 29.67 1005 10 16 0.00 0.00
10:42 am 10:42 Cloudy 70 21 64 18 83 83 E 21 33 29.66 1004 10 16 0.00 0.00
10:56 am 10:56 Cloudy with Nearby Thunderstorms 71 21.7 65 18.3 81 81 E 23 37 29.65 1004 10 16 0.00 0.00
11:08 am 11:08 Mostly Cloudy 72 22 64 18 78 78 E 23 37 29.61 1003 10 16 0.00 0.00
11:56 am 11:56 Mostly Cloudy 78 25.6 68 20 71 71 ESE 24 39 29.62 1003 10 16 0.00 0.00
12:10 pm 12:10 Mostly Cloudy 79 26 70 21 74 74 ESE 22 35 29.56 1001 10 16 0.00 0.00
12:17 pm 12:17 Mostly Cloudy 81 27 70 21 70 70 ESE 20 31 29.55 1001 10 16 0.00 0.00
12:56 pm 12:56 Mostly Cloudy 82 27.8 69 20.6 65 65 SSE 24 39 29.59 1002 10 16 0.00 0.00
1:56 pm 13:56 Mostly Sunny 87 30.6 69 20.6 55 55 SSE 29 46 29.54 1001 10 16 0.00 0.00
2:56 pm 14:56 Sunny 88 31.1 69 20.6 54 54 S 29 46 29.52 1000 10 16 0.00 0.00
3:56 pm 15:56 Sunny 87 30.6 69 20.6 55 55 SSE 35 56 29.50 999 10 16 0.00 0.00
4:56 pm 16:56 Sunny 90 32.2 71 21.7 54 54 SSE 29 46 29.49 999 10 16 0.00 0.00
5:56 pm 17:56 Sunny 90 32.2 70 21.1 52 52 SSE 33 54 29.48 998 10 16 0.00 0.00
6:56 pm 18:56 Sunny 90 32.2 69 20.6 50 50 SSE 26 43 29.47 998 10 16 0.00 0.00
7:56 pm 19:56 Partly Cloudy 88 31.1 68 20 52 52 SSE 25 41 29.48 998 10 16 0.00 0.00
8:56 pm 20:56 Sunny 86 30 65 18.3 50 50 SSE 29 46 29.49 999 10 16 0.00 0.00
9:56 pm 21:56 Clear 84 28.9 66 18.9 55 55 SSE 29 46 29.49 999 10 16 0.00 0.00
10:56 pm 22:56 Clear 83 28.3 67 19.4 59 59 SSE 30 48 29.50 999 10 16 0.00 0.00
11:56 pm 23:56 Clear 81 27.2 67 19.4 62 62 SSE 32 52 29.49 999 10 16 0.00 0.00

Powered by Vaisala Xweather